Location: Melita
(38.4566°N, 122.6369°W)
Time: 09:42:17
(UTC+00:00)

Meteor 1-11 - Pass Details

Date: 24 January 2020
Orbit: 840 x 887 km, 81.2° (Epoch: 18 February)

Event Time Altitude Azimuth Distance (km) Brightness Sun altitude
Rises 14:30:58 0° 344° (NNW) 3,410 7.0 -10.2°
Reaches altitude 10° 14:33:28 10° 338° (NNW) 2,475 6.3 -9.8°
Maximum altitude 14:38:47 46° 267° (W) 1,127 4.5 -8.8°
Drops below altitude 10° 14:44:08 10° 195° (SSW) 2,486 6.7 -7.8°
Sets 14:46:39 0° 189° (S) 3,426 7.5 -7.3°
